EW9140 Weather Reports


Display with metric or nautical units.
time (UTC)temp
F
wind
direction
speed
MPH
gust
MPH
rain 1hr
in
rain 24hr
in
rain mn
in
humidity
%
barometer
mb
20260507204510 53 191 0.0 0.0 0.00 0.07 0.07 84 1009.2
20260507203011 53 250 0.0 1.0 0.00 0.07 0.07 85 1009.3
20260507201509 53 115 0.0 1.0 0.01 0.07 0.07 84 1009.5
20260507200009 53 278 0.0 0.0 0.01 0.07 0.07 83 1009.4
20260507194515 54 278 0.0 0.0 0.01 0.07 0.07 83 1009.6
20260507193008 54 278 0.0 1.0 0.01 0.07 0.07 81 1009.5
20260507191511 54 153 0.0 1.0 0.00 0.06 0.06 80 1009.7
20260507190012 55 174 0.0 2.0 0.00 0.06 0.06 80 1009.7
20260507184505 55 241 0.0 0.0 0.00 0.07 0.06 80 1009.9
20260507183011 55 241 0.0 2.0 0.00 0.07 0.06 79 1009.8
20260507181507 55 167 0.0 2.0 0.00 0.07 0.06 79 1009.9
20260507180008 55 141 0.0 3.0 0.00 0.07 0.06 79 1009.9
20260507174503 54 96 0.0 0.0 0.00 0.07 0.06 81 1010.0
20260507173004 54 96 0.0 0.0 0.00 0.07 0.06 82 1010.3
20260507171604 54 139 0.0 0.0 0.00 0.07 0.06 82 1010.3
20260507170104 55 17 0.0 2.0 0.00 0.07 0.06 80 1010.4
20260507164558 55 75 0.0 2.0 0.00 0.08 0.06 78 1010.6
20260507163055 55 110 0.0 2.0 0.00 0.08 0.06 79 1010.7
20260507154545 56 76 0.0 3.0 0.00 0.08 0.06 78 1010.7
20260507153043 56 57 0.0 1.0 0.00 0.08 0.06 80 1010.8
20260507151542 56 121 0.0 0.0 0.00 0.08 0.06 83 1010.7
20260507150043 56 122 0.0 0.0 0.00 0.08 0.06 84 1010.7
20260507144541 56 122 0.0 1.0 0.00 0.11 0.06 84 1010.7
20260507143054 56 122 0.0 1.0 0.00 0.11 0.06 83 1010.4
20260507141550 57 52 0.0 1.0 0.00 0.11 0.06 85 1010.6
20260507140039 57 94 0.0 0.0 0.00 0.11 0.06 87 1010.7
20260507134538 57 115 0.0 1.0 0.00 0.12 0.06 88 1010.7
20260507133106 57 133 0.0 1.0 0.00 0.12 0.06 89 1010.7
20260507131543 57 92 0.0 0.0 0.00 0.12 0.06 91 1010.0
20260507130041 56 81 0.0 0.0 0.00 0.12 0.06 92 1010.0
20260507124535 56 81 0.0 0.0 0.00 0.12 0.06 92 1010.6
20260507123039 56 81 0.0 0.0 0.00 0.12 0.06 93 1010.4
20260507121534 56 86 0.0 0.0 0.00 0.12 0.06 93 1010.0
20260507120035 56 86 0.0 0.0 0.00 0.12 0.06 94 1010.2
20260507114534 56 86 0.0 0.0 0.00 0.12 0.06 94 1010.4
20260507113035 56 86 0.0 0.0 0.00 0.12 0.06 94 1010.3
20260507111528 56 86 0.0 0.0 0.00 0.12 0.06 94 1010.0
20260507110037 56 86 0.0 0.0 0.00 0.12 0.06 94 1010.0
20260507104529 56 86 0.0 0.0 0.00 0.12 0.06 93 1009.7
20260507103029 56 86 0.0 1.0 0.02 0.12 0.06 93 1009.7
20260507101532 57 257 0.0 1.0 0.03 0.12 0.06 93 1009.5
20260507100022 57 85 0.0 0.0 0.04 0.12 0.06 93 1009.3
20260507094517 58 66 0.0 1.0 0.05 0.12 0.06 92 1009.3
20260507093013 60 41 0.0 2.0 0.03 0.10 0.04 90 1009.3
20260507091511 64 44 0.0 3.0 0.02 0.09 0.03 89 1009.0
20260507090010 66 255 0.0 0.0 0.02 0.08 0.02 93 1008.6
20260507084506 66 230 0.0 0.0 0.01 0.07 0.01 93 1008.6
20260507083005 66 230 0.0 0.0 0.01 0.07 0.01 93 1008.5
20260507081504 66 316 0.0 0.0 0.00 0.06 0.00 92 1008.2
20260507080003 66 316 0.0 0.0 0.00 0.06 0.00 92 1007.9
20260507074501 66 316 0.0 0.0 0.00 0.06 0.00 92 1007.4
20260507073108 67 191 0.0 0.0 0.00 0.06 0.00 91 1007.7
20260507071557 67 232 0.0 0.0 0.00 0.06 0.00 90 1007.7
20260507070103 67 276 0.0 1.0 0.00 0.06 0.00 89 1008.3
20260507064558 67 281 0.0 2.0 0.00 0.06 0.00 88 1007.9
20260507063054 68 275 0.0 1.0 0.00 0.06 0.00 86 1007.9
20260507061553 68 251 0.0 0.0 0.00 0.06 0.00 86 1007.7
20260507060054 68 291 0.0 1.0 0.00 0.06 0.00 85 1007.7
20260507054551 68 335 0.0 0.0 0.00 0.06 0.00 85 1007.9
20260507053048 68 297 0.0 1.0 0.00 0.06 0.00 85 1008.0
20260507051547 68 297 0.0 1.0 0.00 0.06 0.00 85 1008.2
20260507050043 68 5 0.0 2.0 0.00 0.06 0.00 85 1008.6
20260507044556 68 321 0.0 1.0 0.00 0.06 0.00 84 1009.1
20260507043042 68 267 0.0 1.0 0.00 0.06 0.00 84 1009.4
20260507041545 68 263 0.0 1.0 0.00 0.06 0.00 84 1009.1
20260507040042 68 262 0.0 2.0 0.00 0.06 0.00 84 1009.1
20260507034542 68 318 0.0 1.0 0.00 0.06 0.06 85 1009.0
20260507033047 68 88 0.0 1.0 0.00 0.06 0.06 85 1008.9
20260507031551 67 271 0.0 2.0 0.00 0.06 0.06 86 1008.5
20260507030042 67 44 0.0 0.0 0.00 0.06 0.06 87 1008.7
20260507024543 67 321 0.0 0.0 0.00 0.06 0.06 87 1008.4
20260507023034 67 321 0.0 0.0 0.00 0.06 0.06 87 1008.7
20260507021537 67 321 0.0 0.0 0.00 0.06 0.06 88 1008.7
20260507020038 66 320 0.0 0.0 0.00 0.06 0.06 88 1009.2
20260507014542 66 321 0.0 0.0 0.00 0.06 0.06 88 1009.0
20260507013039 66 321 0.0 0.0 0.00 0.06 0.06 87 1009.0
20260507011536 67 321 0.0 0.0 0.00 0.06 0.06 86 1008.8
20260507010039 67 321 0.0 0.0 0.00 0.06 0.06 85 1008.9
20260507004532 68 321 0.0 0.0 0.00 0.06 0.06 84 1008.7
20260507003030 68 321 0.0 0.0 0.00 0.06 0.06 83 1008.8
20260507001534 69 321 0.0 0.0 0.00 0.06 0.06 82 1008.9
20260507000028 69 293 0.0 0.0 0.00 0.06 0.06 81 1009.1
20260506234528 70 264 0.0 0.0 0.00 0.06 0.06 80 1008.7
20260506233028 70 264 0.0 0.0 0.00 0.06 0.06 79 1008.5
20260506231527 71 257 0.0 4.0 0.00 0.06 0.06 77 1008.7
20260506230026 71 129 0.0 1.0 0.00 0.06 0.06 77 1008.6
20260506224527 71 20 0.0 1.0 0.00 0.06 0.06 76 1008.6
20260506223025 71 326 0.0 0.0 0.00 0.06 0.06 75 1008.6
20260506221525 72 302 0.0 1.0 0.00 0.06 0.06 75 1008.7
20260506220024 72 271 0.0 6.0 0.00 0.06 0.06 73 1008.5
20260506214525 72 320 0.0 3.0 0.00 0.06 0.06 72 1008.6
20260506213023 72 23 0.0 5.0 0.00 0.06 0.06 72 1008.7
20260506211524 72 342 0.0 1.0 0.00 0.06 0.06 74 1009.1
20260506210021 71 266 0.0 4.0 0.00 0.06 0.06 75 1008.7